Butler, GA

2:36 PM EST on December 08, 2019 (GMT -0500)
Butler

Weather History for K6A1 - October, 2019

Change the Weather History Date:

Saturday, October 5, 2019

  Actual Average (KMCN) Record (KMCN)
Temperature  
Mean Temperature 82 °F -  
Max Temperature 93 °F 82 °F 100 °F (1954)
Min Temperature 71 °F 55 °F 37 °F (1974)
Cooling Degree Days 17    
Growing Degree Days 32 (Base 50)    
Moisture  
Dew Point 65 °F    
Average Humidity 60    
Maximum Humidity 85    
Minimum Humidity 32    
Precipitation  
Precipitation 0.00 in - - ()
Sea Level Pressure  
Sea Level Pressure 30.05 in    
Wind  
Wind Speed 6 mph ()    
Max Wind Speed 15 mph    
Max Gust Speed 23 mph    
Visibility 10.0 miles    
Events      
Averages and records for this station are not official NWS values.
T = Trace of Precipitation, MM = Missing Value Source: Averaged Metar Reports

Daily Weather History Graph

Daily Weather History Graph

Search for Another Location

Airport or City:

Astronomy

Oct. 05, 2019 Rise Set
Actual Time 7:33 AM EDT 7:16 PM EDT
Civil Twilight 7:09 AM EDT 7:41 PM EDT
Nautical Twilight 6:40 AM EDT 8:09 PM EDT
Astronomical Twilight 6:11 AM EDT 8:38 PM EDT
Moon 2:40 PM EDT (10/5) 12:04 AM EDT (10/5)
Length of Visible Light 12h 32m
Length of Day
11h 43m
Waxing Crescent, 50% of the Moon is Illuminated
Oct 5
Waxing Crescent
Oct 5
First Quarter
Oct 13
Full
Oct 21
Last Quarter
Oct 27
New

Hourly Weather History & Observations

Time (EDT) Temp. Heat Index Dew Point Humidity Pressure Visibility Wind Dir Wind Speed Gust Speed Precip Events Conditions
12:15 AM 79.3 °F - 61.3 °F 54% 30.00 in 10.0 mi South 8.1 mph - N/A   Unknown
12:35 AM 79.0 °F - 63.1 °F 58% 30.00 in 10.0 mi SSW 4.6 mph - N/A   Unknown
12:55 AM 78.6 °F - 63.0 °F 59% 30.00 in 10.0 mi SW 5.8 mph - N/A   Unknown
1:15 AM 78.8 °F - 62.8 °F 58% 29.99 in 10.0 mi SW 4.6 mph - N/A   Unknown
1:35 AM 78.4 °F - 62.8 °F 58% 29.99 in 10.0 mi SSW 3.5 mph - N/A   Unknown
1:55 AM 77.5 °F - 63.1 °F 61% 29.99 in 10.0 mi SSW 4.6 mph - N/A   Unknown
2:15 AM 77.4 °F - 63.5 °F 62% 30.00 in 10.0 mi SSW 4.6 mph - N/A   Unknown
2:35 AM 77.4 °F - 63.9 °F 63% 29.99 in 10.0 mi SSW 4.6 mph - N/A   Unknown
2:55 AM 77.7 °F - 64.6 °F 64% 29.99 in 10.0 mi SSW 5.8 mph - N/A   Unknown
3:15 AM 77.2 °F - 64.9 °F 66% 29.99 in 10.0 mi SSW 4.6 mph - N/A   Unknown
3:35 AM 77.4 °F - 65.5 °F 67% 29.99 in 10.0 mi SSW 6.9 mph - N/A   Unknown
3:55 AM 77.0 °F - 65.7 °F 68% 29.98 in 10.0 mi SSW 6.9 mph - N/A   Unknown
4:15 AM 76.5 °F - 65.7 °F 69% 29.98 in 10.0 mi SSW 6.9 mph - N/A   Unknown
4:35 AM 75.7 °F - 65.7 °F 71% 29.98 in 10.0 mi SSW 5.8 mph - N/A   Unknown
4:55 AM 75.6 °F - 65.8 °F 72% 29.98 in 10.0 mi South 4.6 mph - N/A   Unknown
5:15 AM 74.7 °F - 65.8 °F 74% 29.99 in 10.0 mi South 3.5 mph - N/A   Unknown
5:35 AM 74.3 °F - 66.0 °F 75% 30.00 in 10.0 mi SSE 3.5 mph - N/A   Unknown
5:55 AM 73.9 °F - 66.2 °F 77% 30.01 in 10.0 mi Calm Calm - N/A   Unknown
6:15 AM 72.9 °F - 66.2 °F 80% 30.00 in 10.0 mi SSW 4.6 mph - N/A   Unknown
6:35 AM 73.2 °F - 66.6 °F 80% 30.01 in 10.0 mi SW 4.6 mph - N/A   Unknown
6:55 AM 73.0 °F - 66.7 °F 81% 30.02 in 10.0 mi Calm Calm - N/A   Unknown
7:15 AM 72.0 °F - 66.4 °F 83% 30.04 in 10.0 mi Calm Calm - N/A   Unknown
7:35 AM 71.4 °F - 66.4 °F 84% 30.04 in 10.0 mi Calm Calm - N/A   Unknown
7:55 AM 71.4 °F - 66.7 °F 85% 30.04 in 10.0 mi Calm Calm - N/A   Unknown
8:15 AM 72.9 °F - 67.3 °F 83% 30.05 in 10.0 mi Calm Calm - N/A   Unknown
8:35 AM 73.9 °F - 67.5 °F 80% 30.06 in 10.0 mi Calm Calm - N/A   Unknown
8:55 AM 75.4 °F - 67.5 °F 76% 30.07 in 10.0 mi Calm Calm - N/A   Unknown
9:15 AM 76.5 °F - 67.3 °F 73% 30.07 in 10.0 mi Calm Calm - N/A   Unknown
9:35 AM 77.0 °F - 67.3 °F 72% 30.07 in 10.0 mi Calm Calm - N/A   Unknown
9:55 AM 79.7 °F - 67.6 °F 66% 30.09 in 10.0 mi ENE 5.8 mph - N/A   Unknown
10:15 AM 79.9 °F - 67.6 °F 66% 30.10 in 10.0 mi East 6.9 mph - N/A   Unknown
10:55 AM 83.1 °F 86.1 °F 68.0 °F 60% 30.10 in 10.0 mi ENE 4.6 mph - N/A   Unknown
11:15 AM 85.5 °F 88.5 °F 67.8 °F 55% 30.10 in 10.0 mi East 5.8 mph - N/A   Unknown
11:35 AM 86.7 °F 89.6 °F 67.3 °F 52% 30.10 in 10.0 mi ENE 8.1 mph - N/A   Unknown
11:55 AM 88.2 °F 90.9 °F 66.6 °F 49% 30.10 in 10.0 mi East 9.2 mph - N/A   Unknown
12:15 PM 89.6 °F 91.8 °F 65.8 °F 45% 30.10 in 10.0 mi East 10.4 mph 17.3 mph N/A   Unknown
12:35 PM 88.9 °F 90.0 °F 63.9 °F 43% 30.10 in 10.0 mi SE 11.5 mph - N/A   Unknown
12:55 PM 90.1 °F 90.9 °F 63.0 °F 40% 30.09 in 10.0 mi ESE 10.4 mph 16.1 mph N/A   Unknown
1:35 PM 89.8 °F 90.7 °F 63.0 °F 41% 30.08 in 10.0 mi ESE 8.1 mph - N/A   Unknown
1:55 PM 89.6 °F 90.4 °F 62.8 °F 41% 30.07 in 10.0 mi East 8.1 mph - N/A   Unknown
2:15 PM 89.6 °F 90.1 °F 62.6 °F 40% 30.05 in 10.0 mi East 12.7 mph 18.4 mph N/A   Unknown
2:35 PM 89.4 °F 89.8 °F 61.9 °F 40% 30.05 in 10.0 mi East 10.4 mph 19.6 mph N/A   Unknown
2:55 PM 93.2 °F 92.6 °F 59.2 °F 32% 30.04 in 10.0 mi SE 10.4 mph - N/A   Unknown
3:35 PM 92.8 °F 92.1 °F 58.8 °F 32% 30.03 in 10.0 mi SSE 12.7 mph 19.6 mph N/A   Unknown
3:55 PM 92.5 °F 91.6 °F 58.3 °F 32% 30.03 in 10.0 mi SSE 11.5 mph 17.3 mph N/A   Unknown
4:15 PM 91.8 °F 90.6 °F 58.3 °F 32% 30.02 in 10.0 mi ESE 11.5 mph 18.4 mph N/A   Unknown
4:35 PM 92.3 °F 91.3 °F 58.1 °F 32% 30.02 in 10.0 mi SE 12.7 mph 18.4 mph N/A   Unknown
4:55 PM 92.3 °F 91.3 °F 58.3 °F 32% 30.02 in 10.0 mi SSE 12.7 mph 20.7 mph N/A   Unknown
5:15 PM 91.8 °F 90.9 °F 58.5 °F 33% 30.02 in 10.0 mi SE 8.1 mph 18.4 mph N/A   Unknown
5:35 PM 90.5 °F 90.1 °F 60.4 °F 36% 30.03 in 10.0 mi ESE 12.7 mph 18.4 mph N/A   Unknown
5:55 PM 89.4 °F 90.2 °F 62.8 °F 41% 30.03 in 10.0 mi East 15.0 mph 18.4 mph N/A   Unknown
6:15 PM 85.6 °F 87.6 °F 65.5 °F 51% 30.04 in 10.0 mi East 15.0 mph 23.0 mph N/A   Unknown
6:35 PM 84.9 °F 87.1 °F 66.2 °F 53% 30.04 in 10.0 mi East 13.8 mph - N/A   Unknown
6:55 PM 83.3 °F 85.7 °F 66.6 °F 57% 30.04 in 10.0 mi East 13.8 mph 20.7 mph N/A   Unknown
7:15 PM 81.5 °F 83.7 °F 66.2 °F 60% 30.05 in 10.0 mi East 13.8 mph 21.9 mph N/A   Unknown
7:35 PM 80.6 °F 82.7 °F 66.2 °F 61% 30.07 in 10.0 mi East 10.4 mph 17.3 mph N/A   Unknown
7:55 PM 79.9 °F - 66.0 °F 62% 30.07 in 10.0 mi ENE 10.4 mph 17.3 mph N/A   Unknown
8:15 PM 78.6 °F - 65.7 °F 64% 30.09 in 10.0 mi ENE 11.5 mph 17.3 mph N/A   Unknown
8:35 PM 77.9 °F - 65.5 °F 65% 30.11 in 10.0 mi East 9.2 mph 19.6 mph N/A   Unknown
8:55 PM 77.5 °F - 65.3 °F 66% 30.11 in 10.0 mi ENE 11.5 mph - N/A   Unknown
9:15 PM 77.0 °F - 65.3 °F 67% 30.12 in 10.0 mi East 10.4 mph 17.3 mph N/A   Unknown
9:35 PM 77.0 °F - 65.3 °F 67% 30.12 in 10.0 mi East 9.2 mph - N/A   Unknown
9:55 PM 77.2 °F - 65.3 °F 67% 30.12 in 10.0 mi East 9.2 mph - N/A   Unknown
10:15 PM 77.0 °F - 65.3 °F 67% 30.13 in 10.0 mi East 6.9 mph - N/A   Unknown
10:35 PM 76.6 °F - 65.3 °F 68% 30.13 in 10.0 mi ESE 15.0 mph 21.9 mph N/A   Unknown
10:55 PM 76.3 °F - 65.3 °F 69% 30.14 in 10.0 mi East 9.2 mph - N/A   Unknown
11:15 PM 76.3 °F - 65.3 °F 69% 30.13 in 10.0 mi East 10.4 mph 16.1 mph N/A   Unknown
11:35 PM 76.1 °F - 65.3 °F 69% 30.14 in 10.0 mi East 10.4 mph - N/A   Unknown
11:55 PM 75.6 °F - 65.3 °F 70% 30.14 in 10.0 mi ESE 11.5 mph 17.3 mph N/A   Unknown